Regional Weather Roundup
Issued by NWS

Home | Current Version | Previous Version | Graphics & Text | Print | Product List | Glossary Off
Versions: 1 2 3 4 5 6 7 8 9 10 11 12 13 14 15 16 17 18 19 20 21 22 23 24 25 26 27

000
ASUS45 KSLC 210110
RWRUT

UTAH REGIONAL WEATHER ROUNDUP
NATIONAL WEATHER SERVICE SALT LAKE CITY UT
600 PM MST TUE FEB 20 2018

UTZ001>011-023>025-210200-

NORTHERN UTAH

CITY           SKY/WX    TMP DP  RH WIND       PRES   REMARKS
BRIGHAM CITY     N/A     22   6  49 CALM      30.14S
HILL AFB         N/A     21   5  49 CALM      30.11R
LOGAN            N/A     19   4  51 CALM      30.12R
OGDEN            N/A     22   4  46 CALM      30.11F
SALT LAKE CITY MOCLDY    25   8  48 CALM      30.14R
TOOELE VALLEY    N/A     18  10  73 SW7       30.14S WCI   8
WENDOVER         N/A     27   8  44 SE7       30.09S WCI  19
HEBER CITY       N/A     18   3  53 S3        30.04R
WEST JORDAN    CLOUDY    18  16  92 CALM      30.13R

$$

UTZ011>015-024>027-210200-

CENTRAL/NORTHEAST UTAH

CITY           SKY/WX    TMP DP  RH WIND       PRES   REMARKS
PROVO AIRPORT    N/A     23   9  55 S3        30.14R
MOAB/CANYONLAN CLOUDY    32  -1  24 S8        30.02R WCI  25
DELTA            N/A     21  14  73 E5        30.10S WCI  15
PRICE            N/A     22  -5  30 W14G24    30.00R WCI   9
RICHFIELD      CLEAR     23  12  63 NE6       30.06R WCI  16
VERNAL           N/A     16   4  59 CALM      30.06R

$$

UTZ013>016-019>022-027-210200-

SOUTHERN UTAH

CITY           SKY/WX    TMP DP  RH WIND       PRES   REMARKS
BRYCE CANYON     N/A     15   1  53 NW13      29.96R WCI   1
CEDAR CITY       N/A     23  11  60 NE7       30.01R WCI  15
MILFORD          N/A     18  13  80 N9        30.06R WCI   7
ST GEORGE        N/A     42  -1  16 SW6       30.09S
HANKSVILLE     MOCLDY    34   3  27 S8        30.07R WCI  27
KANAB          CLEAR     32  -6  19 SW6       30.08R WCI  26
BLANDING         N/A     28   5  38 SE3       30.09R

$$

REGIONAL REPORTS     COLORADO/ARIZONA

CITY           SKY/WX    TMP DP  RH WIND       PRES   REMARKS
CRAIG, CO        N/A      9   0  67 CALM      30.03R
GRAND JUNCTION   N/A     30  10  43 CALM      30.05R
RIFLE, CO        N/A     23  11  60 NW10      30.04R WCI  12
MONTROSE, CO   LGT SNOW  21  19  92 N5        30.07R FOG     WCI  15
CORTEZ, CO       N/A     26   9  48 S3        30.03R
COLORADO CITY    N/A     34   0  23 NW8       30.07S WCI  27
PAGE, AZ         N/A     37   3  24 CALM      30.03R
GRAND CANYON     N/A     25   2  37 SW5       30.01R WCI  19
KINGMAN, AZ      N/A     42   1  18 N9        30.06S
FLAGSTAFF, AZ    N/A     27  -4  26 VRB6      29.97R WCI  20

$$

REGIONAL REPORTS    NEVADA/IDAHO/WYOMING

CITY           SKY/WX    TMP DP  RH WIND       PRES   REMARKS
LAS VEGAS, NV    N/A     47  -2  13 CALM      30.08S
ELY, NY          N/A     22  -4  32 N6        29.97S WCI  14
ELKO, NV         N/A     21  -1  38 W7        30.05R WCI  12
POCATELLO, ID    N/A     14   2  58 S12       30.11R WCI   0
BURLEY, ID       N/A     17   4  56 VRB5      30.09S WCI  10
FORT BRIDGER,    N/A      9   1  69 W8        30.00R WCI  -3
EVANSTON, WY     N/A      6   0  76 W9        29.97R WCI  -8
ROCK SPRINGS,    N/A      8  -1  66 SW7       29.99R WCI  -3

$$




USA.gov is the U.S. government's official web portal to all federal, state and local government web resources and services.